| time (UTC) | temp F | wind direction | speed MPH | gust MPH | rain 1hr in | rain 24hr in | rain mn in | humidity % | barometer mb |
| 20260902095549 | 77 | 55 | 2.0 | 4.0 | 0.00 | 0.00 | 0.00 | 87 | 1017.2 |
| 20260902095046 | 77 | 54 | 2.0 | 4.0 | 0.00 | 0.00 | 0.00 | 87 | 1017.0 |
| 20260902094606 | 77 | 49 | 1.0 | 3.0 | 0.00 | 0.00 | 0.00 | 87 | 1017.1 |
| 20260902094045 | 77 | 49 | 2.0 | 3.0 | 0.00 | 0.00 | 0.00 | 87 | 1016.9 |
| 20260902093545 | 77 | 52 | 2.0 | 4.0 | 0.00 | 0.00 | 0.00 | 87 | 1016.8 |
| 20260902093115 | 77 | 53 | 2.0 | 4.0 | 0.00 | 0.00 | 0.00 | 87 | 1016.8 |
| 20260902092546 | 77 | 53 | 1.0 | 4.0 | 0.00 | 0.00 | 0.00 | 87 | 1016.7 |
| 20260902092046 | 77 | 51 | 2.0 | 4.0 | 0.00 | 0.00 | 0.00 | 88 | 1016.6 |
| 20260902091624 | 77 | 53 | 1.0 | 4.0 | 0.00 | 0.00 | 0.00 | 88 | 1016.7 |
| 20260902091048 | 77 | 52 | 1.0 | 4.0 | 0.00 | 0.00 | 0.00 | 88 | 1016.5 |
| 20260902090545 | 77 | 52 | 2.0 | 4.0 | 0.00 | 0.00 | 0.00 | 88 | 1016.5 |
| 20260902090106 | 77 | 51 | 1.0 | 3.0 | 0.00 | 0.00 | 0.00 | 88 | 1016.5 |
| 20260902085545 | 77 | 51 | 1.0 | 3.0 | 0.00 | 0.00 | 0.00 | 88 | 1016.7 |
| 20260902085046 | 77 | 51 | 1.0 | 4.0 | 0.00 | 0.00 | 0.00 | 87 | 1016.6 |
| 20260902084608 | 77 | 51 | 1.0 | 4.0 | 0.00 | 0.00 | 0.00 | 87 | 1016.5 |
| 20260902084043 | 77 | 57 | 2.0 | 4.0 | 0.00 | 0.00 | 0.00 | 87 | 1016.5 |
| 20260902083546 | 77 | 68 | 2.0 | 4.0 | 0.00 | 0.00 | 0.00 | 87 | 1016.4 |
| 20260902083106 | 77 | 92 | 1.0 | 4.0 | 0.00 | 0.00 | 0.00 | 87 | 1016.5 |
| 20260902082546 | 77 | 92 | 1.0 | 3.0 | 0.00 | 0.00 | 0.00 | 87 | 1016.4 |
| 20260902082047 | 77 | 92 | 1.0 | 3.0 | 0.00 | 0.00 | 0.00 | 87 | 1016.4 |
| 20260902081612 | 77 | 92 | 1.0 | 3.0 | 0.00 | 0.00 | 0.00 | 87 | 1016.5 |
| 20260902081045 | 77 | 110 | 1.0 | 3.0 | 0.00 | 0.00 | 0.00 | 87 | 1016.4 |
| 20260902080548 | 77 | 110 | 1.0 | 3.0 | 0.00 | 0.00 | 0.00 | 87 | 1016.5 |
| 20260902080107 | 77 | 110 | 1.0 | 3.0 | 0.00 | 0.00 | 0.00 | 87 | 1016.5 |
| 20260902075546 | 77 | 110 | 2.0 | 3.0 | 0.00 | 0.00 | 0.00 | 87 | 1016.4 |
| 20260902075043 | 77 | 113 | 2.0 | 3.0 | 0.00 | 0.00 | 0.00 | 87 | 1016.5 |
| 20260902074556 | 77 | 121 | 1.0 | 3.0 | 0.00 | 0.00 | 0.00 | 87 | 1016.5 |
| 20260902074045 | 77 | 121 | 1.0 | 3.0 | 0.00 | 0.00 | 0.00 | 87 | 1016.4 |
| 20260902073545 | 78 | 121 | 1.0 | 3.0 | 0.00 | 0.00 | 0.00 | 87 | 1016.5 |
| 20260902073101 | 78 | 121 | 1.0 | 3.0 | 0.00 | 0.00 | 0.00 | 87 | 1016.5 |
| 20260902072546 | 78 | 121 | 2.0 | 3.0 | 0.00 | 0.00 | 0.00 | 87 | 1016.5 |
| 20260902072049 | 78 | 121 | 1.0 | 3.0 | 0.00 | 0.00 | 0.00 | 87 | 1016.5 |
| 20260902071622 | 78 | 121 | 1.0 | 3.0 | 0.00 | 0.00 | 0.00 | 87 | 1016.5 |
| 20260902071048 | 78 | 121 | 1.0 | 3.0 | 0.00 | 0.00 | 0.00 | 87 | 1016.4 |
| 20260902070547 | 78 | 121 | 0.0 | 2.0 | 0.00 | 0.00 | 0.00 | 87 | 1016.5 |
| 20260902070100 | 78 | 121 | 1.0 | 2.0 | 0.00 | 0.00 | 0.00 | 87 | 1016.6 |
| 20260902065546 | 78 | 121 | 0.0 | 3.0 | 0.00 | 0.00 | 0.00 | 87 | 1016.5 |
| 20260902065050 | 78 | 121 | 1.0 | 3.0 | 0.00 | 0.00 | 0.00 | 87 | 1016.6 |
| 20260902064604 | 78 | 121 | 1.0 | 3.0 | 0.00 | 0.00 | 0.00 | 87 | 1016.6 |
| 20260902064045 | 78 | 0 | 0.0 | 2.0 | 0.00 | 0.00 | 0.00 | 87 | 1016.7 |
| 20260902063543 | 78 | 121 | 0.0 | 2.0 | 0.00 | 0.00 | 0.00 | 87 | 1016.6 |
| 20260902063112 | 78 | 0 | 1.0 | 2.0 | 0.00 | 0.00 | 0.00 | 87 | 1016.7 |
| 20260902062545 | 78 | 121 | 1.0 | 2.0 | 0.00 | 0.00 | 0.00 | 86 | 1016.6 |
| 20260902062044 | 78 | 121 | 1.0 | 3.0 | 0.00 | 0.00 | 0.00 | 86 | 1016.5 |
| 20260902061559 | 78 | 121 | 1.0 | 3.0 | 0.00 | 0.00 | 0.00 | 86 | 1016.6 |
| 20260902061046 | 78 | 121 | 1.0 | 3.0 | 0.00 | 0.00 | 0.00 | 86 | 1016.7 |
| 20260902060543 | 78 | 121 | 1.0 | 3.0 | 0.00 | 0.00 | 0.00 | 86 | 1016.8 |
| 20260902060126 | 78 | 121 | 0.0 | 3.0 | 0.00 | 0.00 | 0.00 | 86 | 1016.7 |
| 20260902055542 | 79 | 121 | 1.0 | 3.0 | 0.00 | 0.00 | 0.00 | 86 | 1016.8 |
| 20260902055045 | 79 | 121 | 1.0 | 3.0 | 0.00 | 0.00 | 0.00 | 86 | 1016.7 |
| 20260902054554 | 79 | 121 | 1.0 | 3.0 | 0.00 | 0.00 | 0.00 | 86 | 1016.7 |
| 20260902054048 | 79 | 121 | 1.0 | 3.0 | 0.00 | 0.00 | 0.00 | 86 | 1016.7 |
| 20260902053547 | 79 | 121 | 1.0 | 3.0 | 0.00 | 0.00 | 0.00 | 86 | 1016.9 |
| 20260902053057 | 79 | 0 | 1.0 | 3.0 | 0.00 | 0.00 | 0.00 | 86 | 1016.9 |
| 20260902052543 | 79 | 121 | 1.0 | 3.0 | 0.00 | 0.00 | 0.00 | 86 | 1016.9 |
| 20260902052044 | 79 | 121 | 1.0 | 3.0 | 0.00 | 0.00 | 0.00 | 86 | 1017.0 |
| 20260902051604 | 79 | 121 | 1.0 | 3.0 | 0.00 | 0.00 | 0.00 | 86 | 1017.0 |
| 20260902051042 | 79 | 121 | 1.0 | 3.0 | 0.00 | 0.00 | 0.00 | 86 | 1017.0 |
| 20260902050547 | 79 | 121 | 1.0 | 3.0 | 0.00 | 0.00 | 0.00 | 86 | 1017.0 |
| 20260902050055 | 79 | 0 | 0.0 | 3.0 | 0.00 | 0.00 | 0.00 | 86 | 1017.1 |
| 20260902045548 | 79 | 0 | 0.0 | 3.0 | 0.00 | 0.00 | 0.00 | 86 | 1017.2 |
| 20260902045044 | 80 | 0 | 1.0 | 4.0 | 0.00 | 0.00 | 0.00 | 86 | 1017.1 |
| 20260902044601 | 80 | 121 | 2.0 | 4.0 | 0.00 | 0.00 | 0.00 | 86 | 1017.2 |
| 20260902044044 | 80 | 121 | 1.0 | 3.0 | 0.00 | 0.00 | 0.00 | 86 | 1017.2 |
| 20260902043545 | 80 | 121 | 1.0 | 3.0 | 0.00 | 0.00 | 0.00 | 86 | 1017.2 |
| 20260902043109 | 80 | 121 | 1.0 | 2.0 | 0.00 | 0.00 | 0.00 | 86 | 1017.3 |
| 20260902042545 | 80 | 0 | 1.0 | 2.0 | 0.00 | 0.00 | 0.00 | 86 | 1017.3 |
| 20260902042045 | 80 | 121 | 1.0 | 4.0 | 0.00 | 0.00 | 0.00 | 86 | 1017.2 |
| 20260902041605 | 80 | 121 | 1.0 | 4.0 | 0.00 | 0.00 | 0.00 | 86 | 1017.2 |
| 20260902041044 | 80 | 121 | 2.0 | 5.0 | 0.00 | 0.00 | 0.00 | 86 | 1017.3 |
| 20260902040546 | 80 | 124 | 2.0 | 5.0 | 0.00 | 0.00 | 0.00 | 86 | 1017.4 |
| 20260902040107 | 80 | 167 | 3.0 | 5.0 | 0.00 | 0.00 | 0.00 | 87 | 1017.3 |
| 20260902035546 | 80 | 202 | 1.0 | 2.0 | 0.00 | 0.00 | 0.00 | 86 | 1017.3 |
| 20260902035046 | 80 | 0 | 0.0 | 0.0 | 0.00 | 0.00 | 0.00 | 86 | 1017.3 |
| 20260902034601 | 80 | 0 | 0.0 | 0.0 | 0.00 | 0.00 | 0.00 | 86 | 1017.3 |
| 20260902034043 | 80 | 0 | 0.0 | 1.0 | 0.00 | 0.00 | 0.00 | 86 | 1017.2 |
| 20260902033546 | 80 | 0 | 0.0 | 2.0 | 0.00 | 0.00 | 0.00 | 86 | 1017.1 |
| 20260902033102 | 80 | 0 | 0.0 | 2.0 | 0.00 | 0.00 | 0.00 | 86 | 1017.2 |
| 20260902032544 | 80 | 202 | 1.0 | 2.0 | 0.00 | 0.00 | 0.00 | 86 | 1017.3 |
| 20260902032046 | 80 | 201 | 1.0 | 2.0 | 0.00 | 0.00 | 0.00 | 86 | 1017.4 |
| 20260902031556 | 80 | 201 | 1.0 | 2.0 | 0.00 | 0.00 | 0.00 | 86 | 1017.4 |
| 20260902031046 | 80 | 173 | 0.0 | 1.0 | 0.00 | 0.00 | 0.00 | 85 | 1017.5 |
| 20260902030548 | 80 | 0 | 0.0 | 0.0 | 0.00 | 0.00 | 0.00 | 85 | 1017.5 |
| 20260902025546 | 80 | 0 | 0.0 | 2.0 | 0.00 | 0.00 | 0.00 | 85 | 1017.4 |
| 20260902025046 | 80 | 170 | 1.0 | 2.0 | 0.00 | 0.00 | 0.00 | 85 | 1017.3 |
| 20260902024608 | 80 | 0 | 0.0 | 1.0 | 0.00 | 0.00 | 0.00 | 85 | 1017.4 |
| 20260902024046 | 80 | 170 | 0.0 | 2.0 | 0.00 | 0.00 | 0.00 | 85 | 1017.5 |
| 20260902023542 | 80 | 0 | 0.0 | 2.0 | 0.00 | 0.00 | 0.00 | 85 | 1017.5 |
| 20260902023058 | 80 | 170 | 0.0 | 2.0 | 0.00 | 0.00 | 0.00 | 85 | 1017.4 |
| 20260902022546 | 80 | 0 | 0.0 | 1.0 | 0.00 | 0.00 | 0.00 | 84 | 1017.4 |
| 20260902022046 | 81 | 0 | 0.0 | 2.0 | 0.00 | 0.00 | 0.00 | 84 | 1017.4 |
| 20260902021602 | 81 | 170 | 0.0 | 2.0 | 0.00 | 0.00 | 0.00 | 83 | 1017.3 |
| 20260902021047 | 81 | 170 | 0.0 | 2.0 | 0.00 | 0.00 | 0.00 | 83 | 1017.3 |
| 20260902020546 | 81 | 170 | 0.0 | 1.0 | 0.00 | 0.00 | 0.00 | 83 | 1017.3 |
| 20260902020114 | 81 | 0 | 0.0 | 1.0 | 0.00 | 0.00 | 0.00 | 83 | 1017.3 |
| 20260902015545 | 81 | 170 | 0.0 | 2.0 | 0.00 | 0.00 | 0.00 | 83 | 1017.2 |
| 20260902015046 | 81 | 0 | 0.0 | 2.0 | 0.00 | 0.00 | 0.00 | 83 | 1017.1 |
| 20260902014603 | 81 | 0 | 0.0 | 2.0 | 0.00 | 0.00 | 0.00 | 83 | 1017.1 |
| 20260902014043 | 81 | 0 | 0.0 | 1.0 | 0.00 | 0.00 | 0.00 | 83 | 1017.1 |
| 20260902013547 | 81 | 0 | 0.0 | 2.0 | 0.00 | 0.00 | 0.00 | 82 | 1017.0 |
| 20260902013054 | 81 | 0 | 0.0 | 2.0 | 0.00 | 0.00 | 0.00 | 82 | 1017.0 |
| 20260902012546 | 82 | 170 | 0.0 | 2.0 | 0.00 | 0.00 | 0.00 | 82 | 1016.8 |
| 20260902012044 | 82 | 0 | 0.0 | 2.0 | 0.00 | 0.00 | 0.00 | 82 | 1016.8 |
| 20260902011551 | 82 | 0 | 0.0 | 2.0 | 0.00 | 0.00 | 0.00 | 82 | 1016.7 |
| 20260902011047 | 82 | 170 | 0.0 | 2.0 | 0.00 | 0.00 | 0.00 | 82 | 1016.6 |
| 20260902010543 | 82 | 169 | 0.0 | 2.0 | 0.00 | 0.00 | 0.00 | 82 | 1016.6 |
| 20260902010058 | 82 | 0 | 0.0 | 2.0 | 0.00 | 0.00 | 0.00 | 82 | 1016.6 |
| 20260902005550 | 82 | 169 | 0.0 | 2.0 | 0.00 | 0.00 | 0.00 | 82 | 1016.4 |
| 20260902005045 | 82 | 0 | 0.0 | 2.0 | 0.00 | 0.00 | 0.00 | 81 | 1016.4 |
| 20260902004556 | 82 | 0 | 0.0 | 2.0 | 0.00 | 0.00 | 0.00 | 81 | 1016.3 |
| 20260902004047 | 83 | 169 | 1.0 | 2.0 | 0.00 | 0.00 | 0.00 | 81 | 1016.4 |
| 20260902003547 | 83 | 169 | 0.0 | 4.0 | 0.00 | 0.00 | 0.00 | 80 | 1016.3 |
| 20260902003105 | 83 | 169 | 1.0 | 5.0 | 0.00 | 0.00 | 0.00 | 80 | 1016.2 |
| 20260902002543 | 83 | 0 | 1.0 | 5.0 | 0.00 | 0.00 | 0.00 | 79 | 1016.2 |
| 20260902002046 | 83 | 0 | 1.0 | 5.0 | 0.00 | 0.00 | 0.00 | 79 | 1016.2 |
| 20260902001558 | 83 | 159 | 1.0 | 4.0 | 0.00 | 0.00 | 0.00 | 79 | 1016.3 |
| 20260902001048 | 83 | 159 | 1.0 | 4.0 | 0.00 | 0.00 | 0.00 | 79 | 1016.3 |
| 20260902000546 | 84 | 159 | 1.0 | 6.0 | 0.00 | 0.00 | 0.00 | 78 | 1016.3 |
| 20260902000056 | 84 | 157 | 1.0 | 6.0 | 0.00 | 0.00 | 0.00 | 78 | 1016.2 |
| 20260901235547 | 84 | 186 | 1.0 | 7.0 | 0.00 | 0.00 | 0.00 | 77 | 1016.2 |
| 20260901235047 | 84 | 186 | 3.0 | 7.0 | 0.00 | 0.00 | 0.00 | 77 | 1016.3 |
| 20260901234606 | 84 | 189 | 3.0 | 7.0 | 0.00 | 0.00 | 0.00 | 77 | 1016.2 |
| 20260901234047 | 84 | 186 | 4.0 | 8.0 | 0.00 | 0.00 | 0.00 | 76 | 1016.2 |
| 20260901233546 | 85 | 190 | 3.0 | 8.0 | 0.00 | 0.00 | 0.00 | 76 | 1016.3 |
| 20260901233107 | 85 | 184 | 3.0 | 8.0 | 0.00 | 0.00 | 0.00 | 75 | 1016.3 |
| 20260901232547 | 85 | 189 | 2.0 | 8.0 | 0.00 | 0.00 | 0.00 | 75 | 1016.3 |
| 20260901232048 | 86 | 186 | 2.0 | 8.0 | 0.00 | 0.00 | 0.00 | 73 | 1016.4 |
| 20260901231606 | 86 | 199 | 4.0 | 9.0 | 0.00 | 0.00 | 0.00 | 74 | 1016.4 |
| 20260901231044 | 86 | 180 | 4.0 | 9.0 | 0.00 | 0.00 | 0.00 | 73 | 1016.3 |
| 20260901230546 | 86 | 166 | 3.0 | 8.0 | 0.00 | 0.00 | 0.00 | 74 | 1016.1 |
| 20260901230106 | 87 | 152 | 2.0 | 9.0 | 0.00 | 0.00 | 0.00 | 73 | 1016.2 |
| 20260901225546 | 86 | 193 | 3.0 | 9.0 | 0.00 | 0.00 | 0.00 | 75 | 1016.1 |
| 20260901225046 | 86 | 172 | 5.0 | 9.0 | 0.00 | 0.00 | 0.00 | 74 | 1016.1 |
| 20260901224600 | 87 | 168 | 4.0 | 9.0 | 0.00 | 0.00 | 0.00 | 75 | 1016.2 |
| 20260901224045 | 87 | 159 | 3.0 | 8.0 | 0.00 | 0.00 | 0.00 | 75 | 1016.2 |
| 20260901223545 | 87 | 167 | 2.0 | 7.0 | 0.00 | 0.00 | 0.00 | 74 | 1016.2 |
| 20260901223101 | 87 | 223 | 4.0 | 10.0 | 0.00 | 0.00 | 0.00 | 74 | 1016.2 |
| 20260901222544 | 87 | 190 | 4.0 | 12.0 | 0.00 | 0.00 | 0.00 | 74 | 1016.3 |
| 20260901222044 | 87 | 193 | 6.0 | 12.0 | 0.00 | 0.00 | 0.00 | 74 | 1016.1 |
| 20260901221612 | 87 | 148 | 6.0 | 10.0 | 0.00 | 0.00 | 0.00 | 74 | 1016.1 |
| 20260901221044 | 86 | 204 | 6.0 | 10.0 | 0.00 | 0.00 | 0.00 | 75 | 1016.0 |
| 20260901220546 | 86 | 192 | 4.0 | 13.0 | 0.00 | 0.00 | 0.00 | 76 | 1016.0 |
| 20260901220106 | 86 | 197 | 5.0 | 14.0 | 0.00 | 0.00 | 0.00 | 76 | 1016.1 |
| 20260901215546 | 86 | 152 | 6.0 | 14.0 | 0.00 | 0.00 | 0.00 | 76 | 1016.1 |
| 20260901215046 | 85 | 175 | 6.0 | 12.0 | 0.00 | 0.00 | 0.00 | 77 | 1015.9 |
| 20260901214556 | 85 | 156 | 6.0 | 11.0 | 0.00 | 0.00 | 0.00 | 76 | 1016.1 |
| 20260901214044 | 86 | 157 | 5.0 | 14.0 | 0.00 | 0.00 | 0.00 | 75 | 1016.0 |
| 20260901213545 | 87 | 128 | 6.0 | 19.0 | 0.00 | 0.00 | 0.00 | 73 | 1016.0 |
| 20260901213104 | 87 | 176 | 9.0 | 19.0 | 0.00 | 0.00 | 0.00 | 74 | 1016.0 |
| 20260901212546 | 86 | 176 | 7.0 | 18.0 | 0.00 | 0.00 | 0.00 | 75 | 1016.0 |
| 20260901212045 | 87 | 161 | 9.0 | 18.0 | 0.00 | 0.00 | 0.00 | 73 | 1016.0 |
| 20260901211550 | 90 | 180 | 9.0 | 16.0 | 0.00 | 0.00 | 0.00 | 68 | 1016.0 |
| 20260901211045 | 93 | 105 | 7.0 | 13.0 | 0.00 | 0.00 | 0.00 | 58 | 1015.8 |
| 20260901210544 | 94 | 47 | 4.0 | 10.0 | 0.00 | 0.00 | 0.00 | 58 | 1015.7 |
| 20260901210057 | 94 | 45 | 5.0 | 11.0 | 0.00 | 0.00 | 0.00 | 54 | 1015.5 |
| 20260901205546 | 94 | 46 | 5.0 | 12.0 | 0.00 | 0.00 | 0.00 | 54 | 1015.6 |
| 20260901205045 | 94 | 76 | 5.0 | 12.0 | 0.00 | 0.00 | 0.00 | 53 | 1015.5 |
| 20260901204557 | 94 | 113 | 4.0 | 11.0 | 0.00 | 0.00 | 0.00 | 55 | 1015.4 |
| 20260901204044 | 94 | 75 | 6.0 | 11.0 | 0.00 | 0.00 | 0.00 | 54 | 1015.4 |
| 20260901203544 | 93 | 104 | 5.0 | 11.0 | 0.00 | 0.00 | 0.00 | 56 | 1015.4 |
| 20260901203106 | 94 | 83 | 6.0 | 11.0 | 0.00 | 0.00 | 0.00 | 53 | 1015.4 |
| 20260901202545 | 94 | 81 | 6.0 | 17.0 | 0.00 | 0.00 | 0.00 | 52 | 1015.6 |
| 20260901202046 | 94 | 50 | 6.0 | 17.0 | 0.00 | 0.00 | 0.00 | 57 | 1015.6 |
| 20260901201558 | 94 | 41 | 6.0 | 17.0 | 0.00 | 0.00 | 0.00 | 55 | 1015.7 |
| 20260901201045 | 94 | 86 | 4.0 | 12.0 | 0.00 | 0.00 | 0.00 | 56 | 1015.8 |
| 20260901200544 | 94 | 17 | 6.0 | 12.0 | 0.00 | 0.00 | 0.00 | 57 | 1015.9 |
| 20260901195545 | 93 | 18 | 6.0 | 13.0 | 0.00 | 0.00 | 0.00 | 54 | 1015.8 |
| 20260901195047 | 94 | 19 | 7.0 | 13.0 | 0.00 | 0.00 | 0.00 | 55 | 1015.9 |
| 20260901194601 | 94 | 20 | 5.0 | 12.0 | 0.00 | 0.00 | 0.00 | 57 | 1015.9 |
| 20260901194047 | 93 | 13 | 4.0 | 13.0 | 0.00 | 0.00 | 0.00 | 56 | 1015.9 |
| 20260901193545 | 93 | 79 | 5.0 | 13.0 | 0.00 | 0.00 | 0.00 | 54 | 1015.9 |
| 20260901193107 | 94 | 61 | 4.0 | 12.0 | 0.00 | 0.00 | 0.00 | 56 | 1015.9 |
| 20260901192544 | 94 | 33 | 7.0 | 12.0 | 0.00 | 0.00 | 0.00 | 59 | 1016.0 |
| 20260901192044 | 94 | 98 | 7.0 | 13.0 | 0.00 | 0.00 | 0.00 | 55 | 1016.2 |
| 20260901191554 | 94 | 23 | 8.0 | 13.0 | 0.00 | 0.00 | 0.00 | 58 | 1016.3 |
| 20260901191044 | 94 | 57 | 5.0 | 11.0 | 0.00 | 0.00 | 0.00 | 55 | 1016.3 |
| 20260901190544 | 94 | 95 | 3.0 | 12.0 | 0.00 | 0.00 | 0.00 | 57 | 1016.5 |
| 20260901190059 | 94 | 48 | 7.0 | 12.0 | 0.00 | 0.00 | 0.00 | 55 | 1016.6 |
| 20260901185545 | 94 | 56 | 6.0 | 12.0 | 0.00 | 0.00 | 0.00 | 58 | 1016.6 |
| 20260901185046 | 93 | 355 | 3.0 | 11.0 | 0.00 | 0.00 | 0.00 | 60 | 1016.6 |
| 20260901184603 | 94 | 42 | 4.0 | 10.0 | 0.00 | 0.00 | 0.00 | 58 | 1016.7 |
| 20260901184045 | 93 | 44 | 4.0 | 10.0 | 0.00 | 0.00 | 0.00 | 60 | 1016.8 |
| 20260901183546 | 92 | 10 | 4.0 | 12.0 | 0.00 | 0.00 | 0.00 | 60 | 1016.8 |
| 20260901183057 | 93 | 32 | 5.0 | 12.0 | 0.00 | 0.00 | 0.00 | 57 | 1016.8 |
| 20260901182549 | 93 | 40 | 3.0 | 12.0 | 0.00 | 0.00 | 0.00 | 59 | 1016.9 |
| 20260901182046 | 93 | 114 | 3.0 | 12.0 | 0.00 | 0.00 | 0.00 | 62 | 1017.1 |
| 20260901181554 | 93 | 77 | 5.0 | 12.0 | 0.00 | 0.00 | 0.00 | 61 | 1017.1 |
| 20260901181044 | 91 | 90 | 4.0 | 12.0 | 0.00 | 0.00 | 0.00 | 62 | 1017.1 |
| 20260901180549 | 91 | 74 | 8.0 | 12.0 | 0.00 | 0.00 | 0.00 | 60 | 1017.2 |
| 20260901175547 | 91 | 63 | 5.0 | 11.0 | 0.00 | 0.00 | 0.00 | 62 | 1017.3 |
| 20260901175045 | 90 | 32 | 6.0 | 11.0 | 0.00 | 0.00 | 0.00 | 66 | 1017.4 |
| 20260901174556 | 89 | 46 | 5.0 | 10.0 | 0.00 | 0.00 | 0.00 | 68 | 1017.5 |
| 20260901174045 | 90 | 19 | 1.0 | 6.0 | 0.00 | 0.00 | 0.00 | 63 | 1017.5 |
| 20260901173545 | 91 | 87 | 3.0 | 6.0 | 0.00 | 0.00 | 0.00 | 63 | 1017.5 |
| 20260901173054 | 90 | 101 | 2.0 | 9.0 | 0.00 | 0.00 | 0.00 | 67 | 1017.6 |
| 20260901172544 | 90 | 44 | 4.0 | 9.0 | 0.00 | 0.00 | 0.00 | 62 | 1017.7 |
| 20260901172045 | 92 | 96 | 2.0 | 9.0 | 0.00 | 0.00 | 0.00 | 63 | 1017.7 |
| 20260901171606 | 92 | 42 | 2.0 | 9.0 | 0.00 | 0.00 | 0.00 | 65 | 1017.8 |
| 20260901171046 | 91 | 5 | 4.0 | 11.0 | 0.00 | 0.00 | 0.00 | 67 | 1017.9 |
| 20260901170545 | 90 | 23 | 4.0 | 11.0 | 0.00 | 0.00 | 0.00 | 65 | 1018.1 |
| 20260901170100 | 90 | 48 | 4.0 | 11.0 | 0.00 | 0.00 | 0.00 | 68 | 1018.2 |
| 20260901165545 | 90 | 26 | 5.0 | 10.0 | 0.00 | 0.00 | 0.00 | 66 | 1018.2 |
| 20260901165045 | 90 | 64 | 4.0 | 9.0 | 0.00 | 0.00 | 0.00 | 63 | 1018.2 |
| 20260901164557 | 90 | 77 | 5.0 | 10.0 | 0.00 | 0.00 | 0.00 | 65 | 1018.2 |
| 20260901164045 | 89 | 57 | 5.0 | 11.0 | 0.00 | 0.00 | 0.00 | 67 | 1018.1 |
| 20260901163543 | 90 | 62 | 4.0 | 11.0 | 0.00 | 0.00 | 0.00 | 69 | 1018.2 |
| 20260901163051 | 90 | 36 | 3.0 | 8.0 | 0.00 | 0.00 | 0.00 | 67 | 1018.3 |
| 20260901162545 | 89 | 0 | 3.0 | 9.0 | 0.00 | 0.00 | 0.00 | 68 | 1018.4 |
| 20260901162045 | 89 | 30 | 4.0 | 11.0 | 0.00 | 0.00 | 0.00 | 68 | 1018.5 |
| 20260901161558 | 89 | 61 | 4.0 | 12.0 | 0.00 | 0.00 | 0.00 | 68 | 1018.5 |
| 20260901161050 | 89 | 70 | 7.0 | 12.0 | 0.00 | 0.00 | 0.00 | 65 | 1018.4 |
| 20260901160548 | 89 | 38 | 4.0 | 12.0 | 0.00 | 0.00 | 0.00 | 68 | 1018.5 |
| 20260901155546 | 88 | 17 | 3.0 | 11.0 | 0.00 | 0.00 | 0.00 | 70 | 1018.5 |
| 20260901155046 | 88 | 66 | 3.0 | 11.0 | 0.00 | 0.00 | 0.00 | 69 | 1018.5 |
| 20260901154558 | 89 | 19 | 5.0 | 11.0 | 0.00 | 0.00 | 0.00 | 68 | 1018.4 |
| 20260901154050 | 88 | 49 | 3.0 | 10.0 | 0.00 | 0.00 | 0.00 | 70 | 1018.4 |
| 20260901153547 | 88 | 32 | 6.0 | 10.0 | 0.00 | 0.00 | 0.00 | 70 | 1018.4 |
| 20260901153105 | 88 | 57 | 5.0 | 10.0 | 0.00 | 0.00 | 0.00 | 70 | 1018.5 |
| 20260901152544 | 88 | 59 | 3.0 | 11.0 | 0.00 | 0.00 | 0.00 | 73 | 1018.5 |
| 20260901152049 | 89 | 5 | 3.0 | 11.0 | 0.00 | 0.00 | 0.00 | 71 | 1018.5 |
| 20260901151553 | 88 | 97 | 3.0 | 10.0 | 0.00 | 0.00 | 0.00 | 72 | 1018.5 |
| 20260901151045 | 88 | 76 | 4.0 | 10.0 | 0.00 | 0.00 | 0.00 | 72 | 1018.6 |
| 20260901150544 | 88 | 33 | 5.0 | 11.0 | 0.00 | 0.00 | 0.00 | 73 | 1018.5 |
| 20260901150109 | 87 | 20 | 4.0 | 11.0 | 0.00 | 0.00 | 0.00 | 74 | 1018.4 |
| 20260901145545 | 87 | 59 | 5.0 | 11.0 | 0.00 | 0.00 | 0.00 | 76 | 1018.4 |
| 20260901145045 | 87 | 77 | 4.0 | 9.0 | 0.00 | 0.00 | 0.00 | 75 | 1018.3 |
| 20260901144556 | 86 | 45 | 5.0 | 9.0 | 0.00 | 0.00 | 0.00 | 76 | 1018.3 |
| 20260901144045 | 86 | 55 | 4.0 | 9.0 | 0.00 | 0.00 | 0.00 | 76 | 1018.2 |
| 20260901143547 | 86 | 93 | 5.0 | 8.0 | 0.00 | 0.00 | 0.00 | 77 | 1018.2 |
| 20260901143057 | 86 | 53 | 4.0 | 8.0 | 0.00 | 0.00 | 0.00 | 76 | 1018.2 |
| 20260901142546 | 86 | 93 | 3.0 | 8.0 | 0.00 | 0.00 | 0.00 | 78 | 1018.2 |
| 20260901142044 | 85 | 73 | 4.0 | 8.0 | 0.00 | 0.00 | 0.00 | 78 | 1018.2 |
| 20260901141550 | 85 | 45 | 2.0 | 7.0 | 0.00 | 0.00 | 0.00 | 81 | 1018.2 |
| 20260901141049 | 85 | 60 | 3.0 | 7.0 | 0.00 | 0.00 | 0.00 | 78 | 1018.3 |
| 20260901140545 | 84 | 59 | 4.0 | 7.0 | 0.00 | 0.00 | 0.00 | 80 | 1018.1 |
| 20260901140100 | 84 | 84 | 3.0 | 7.0 | 0.00 | 0.00 | 0.00 | 81 | 1018.2 |
| 20260901135544 | 83 | 49 | 4.0 | 8.0 | 0.00 | 0.00 | 0.00 | 81 | 1018.2 |
| 20260901135047 | 82 | 51 | 5.0 | 8.0 | 0.00 | 0.00 | 0.00 | 82 | 1018.1 |
| 20260901134616 | 82 | 40 | 4.0 | 7.0 | 0.00 | 0.00 | 0.00 | 87 | 1018.1 |
| 20260901134045 | 81 | 76 | 3.0 | 8.0 | 0.00 | 0.00 | 0.00 | 85 | 1018.2 |
| 20260901133548 | 81 | 42 | 3.0 | 8.0 | 0.00 | 0.00 | 0.00 | 86 | 1018.1 |
| 20260901133054 | 81 | 49 | 3.0 | 8.0 | 0.00 | 0.00 | 0.00 | 87 | 1018.2 |
| 20260901132544 | 80 | 38 | 3.0 | 6.0 | 0.00 | 0.00 | 0.00 | 88 | 1018.3 |
| 20260901132044 | 80 | 38 | 4.0 | 6.0 | 0.00 | 0.00 | 0.00 | 88 | 1018.2 |
| 20260901131600 | 80 | 66 | 3.0 | 6.0 | 0.00 | 0.00 | 0.00 | 89 | 1018.2 |
| 20260901131045 | 79 | 39 | 3.0 | 6.0 | 0.00 | 0.00 | 0.00 | 89 | 1018.2 |
| 20260901130548 | 79 | 26 | 3.0 | 6.0 | 0.00 | 0.00 | 0.00 | 89 | 1018.1 |
| 20260901130109 | 79 | 40 | 2.0 | 8.0 | 0.00 | 0.00 | 0.00 | 90 | 1018.2 |
| 20260901125544 | 79 | 27 | 2.0 | 8.0 | 0.00 | 0.00 | 0.00 | 90 | 1018.1 |
| 20260901125046 | 78 | 46 | 4.0 | 8.0 | 0.00 | 0.00 | 0.00 | 90 | 1018.1 |
| 20260901124603 | 78 | 15 | 2.0 | 6.0 | 0.00 | 0.00 | 0.00 | 90 | 1018.2 |
| 20260901124045 | 78 | 55 | 2.0 | 8.0 | 0.00 | 0.00 | 0.00 | 90 | 1018.1 |
| 20260901123545 | 78 | 42 | 4.0 | 8.0 | 0.00 | 0.00 | 0.00 | 90 | 1018.2 |
| 20260901123103 | 77 | 40 | 3.0 | 7.0 | 0.00 | 0.00 | 0.00 | 90 | 1018.1 |
| 20260901122547 | 77 | 41 | 3.0 | 7.0 | 0.00 | 0.00 | 0.00 | 90 | 1018.1 |
| 20260901122045 | 77 | 47 | 2.0 | 6.0 | 0.00 | 0.00 | 0.00 | 90 | 1018.1 |
| 20260901121554 | 77 | 34 | 2.0 | 5.0 | 0.00 | 0.00 | 0.00 | 90 | 1018.0 |
| 20260901121045 | 76 | 50 | 2.0 | 5.0 | 0.00 | 0.00 | 0.00 | 90 | 1018.0 |
| 20260901120545 | 76 | 45 | 2.0 | 5.0 | 0.00 | 0.00 | 0.00 | 90 | 1017.9 |
| 20260901120103 | 76 | 54 | 2.0 | 4.0 | 0.00 | 0.00 | 0.00 | 90 | 1017.9 |
| 20260901115545 | 76 | 55 | 2.0 | 4.0 | 0.00 | 0.00 | 0.00 | 89 | 1018.0 |
| 20260901115046 | 76 | 56 | 1.0 | 4.0 | 0.00 | 0.00 | 0.00 | 89 | 1017.9 |
| 20260901114554 | 76 | 53 | 2.0 | 4.0 | 0.00 | 0.00 | 0.00 | 89 | 1017.7 |
| 20260901114044 | 76 | 52 | 0.0 | 2.0 | 0.00 | 0.00 | 0.00 | 89 | 1017.6 |
| 20260901113545 | 76 | 52 | 0.0 | 2.0 | 0.00 | 0.00 | 0.00 | 89 | 1017.6 |
| 20260901113140 | 76 | 52 | 1.0 | 2.0 | 0.00 | 0.00 | 0.00 | 89 | 1017.6 |
| 20260901112543 | 76 | 52 | 0.0 | 2.0 | 0.00 | 0.00 | 0.00 | 89 | 1017.5 |
| 20260901112045 | 76 | 52 | 0.0 | 2.0 | 0.00 | 0.00 | 0.00 | 89 | 1017.5 |
| 20260901111600 | 76 | 52 | 0.0 | 2.0 | 0.00 | 0.00 | 0.00 | 89 | 1017.4 |
| 20260901111047 | 76 | 52 | 1.0 | 2.0 | 0.00 | 0.00 | 0.00 | 89 | 1017.4 |
| 20260901110548 | 76 | 52 | 1.0 | 3.0 | 0.00 | 0.00 | 0.00 | 89 | 1017.4 |
| 20260901110105 | 76 | 52 | 1.0 | 3.0 | 0.00 | 0.00 | 0.00 | 89 | 1017.2 |
| 20260901105547 | 76 | 52 | 1.0 | 3.0 | 0.00 | 0.00 | 0.00 | 89 | 1017.1 |
| 20260901105048 | 76 | 52 | 0.0 | 2.0 | 0.00 | 0.00 | 0.00 | 89 | 1017.0 |
| 20260901104606 | 76 | 0 | 0.0 | 3.0 | 0.00 | 0.00 | 0.00 | 89 | 1016.9 |
| 20260901104046 | 76 | 52 | 1.0 | 3.0 | 0.00 | 0.00 | 0.00 | 89 | 1016.8 |
| 20260901103545 | 76 | 52 | 1.0 | 3.0 | 0.00 | 0.00 | 0.00 | 89 | 1016.8 |
| 20260901103104 | 76 | 52 | 0.0 | 3.0 | 0.00 | 0.00 | 0.00 | 89 | 1016.8 |
| 20260901102545 | 76 | 52 | 1.0 | 3.0 | 0.00 | 0.00 | 0.00 | 89 | 1016.8 |
| 20260901102047 | 76 | 53 | 1.0 | 3.0 | 0.00 | 0.00 | 0.00 | 89 | 1016.7 |
| 20260901101616 | 76 | 53 | 0.0 | 2.0 | 0.00 | 0.00 | 0.00 | 89 | 1016.7 |
| 20260901101046 | 76 | 0 | 0.0 | 3.0 | 0.00 | 0.00 | 0.00 | 89 | 1016.6 |
| 20260901100546 | 76 | 53 | 1.0 | 3.0 | 0.00 | 0.00 | 0.00 | 89 | 1016.6 |
| 20260901100115 | 76 | 53 | 1.0 | 4.0 | 0.00 | 0.00 | 0.00 | 89 | 1016.7 |